Other Surface Observations
Issued by NWS Charleston, SC

Home | Current Version | Previous Version | Text Only | Print | Product List | Glossary On
Versions: 1 2 3 4 5 6 7 8 9 10 11 12 13 14 15 16 17 18 19 20 21 22 23 24 25 26 27 28 29 30 31 32 33 34 35 36 37 38 39 40 41 42 43 44 45 46 47 48 49 50
000
SXUS52 KCHS 291413
OSOCHS

MARINE OBSERVATIONS
NATIONAL WEATHER SERVICE CHARLESTON SC
1000 AM EDT SUN MAY 29 2016

...DOWNTOWN CHARLESTON AND HARBOR...

CITY           SKY/WX    TMP DP  RH WIND       PRES   REMARKS
WATERFRONT PRK   N/A     73  72  96 SW10      29.84R

...LAKE MOULTRIE...

CITY           SKY/WX    TMP DP  RH WIND       PRES   REMARKS
PINOPOLIS      NOT AVBL

...LAKE AND SUPPLEMENTAL COASTAL OBSERVATIONS...

STATION/POSITION TIME  TEMP    WIND        PRES    WAVE   SWELL
                       AIR SEA DIR/SP/G            HT/PER HT/PER/DIR
                 (UTC) (F)     (DEG/KT/KT) (MB)    (FT/S) (FT/S/D)
FORT PULASKI     1300   69 76  280/ 21/ 25 1015.0R
SAPELO ISLAND    1300   74     300/ 14     1017.0S
WINYAH BAY       1245   77     110/ 13     1013.0
LAKE MURRAY      1300   68     340/  4/ 10 1017.6R
ACE BASIN NERRS  NOT AVBL


...C-MAN AND BUOY OBSERVATIONS...

STATION/POSITION TIME  TEMP    WIND        PRES    WAVE   SWELL
                       AIR SEA DIR/SP/G            HT/PER HT/PER/DIR
                 (UTC) (F)     (DEG/KT/KT) (MB)    (FT/S) (FT/S/D)
BUOY 41004       1350   75 78  200/ 19/ 23 1013.1R   6/ 8   3/ 8
BUOY 41008       1350   73 75  280/ 21/ 27 1015.8F   4/ 4   2/ 90/ 8
FOLLY BEACH CMAN 1400   75     220/ 15/ 18 1012.5R
CAPERS NS BUOY   1308   74 76  220/ 19/ 27 1010.4R
FRIPP NS BUOY    1308   70 76  270/ 16/ 19 1013.1R
5E ST. MARYS GA  1401      78                N/A     3/ 8


STATION/POSITION TIME  TEMP    WIND        PRES    WAVE   SWELL
                       AIR SEA DIR/SP/G            HT/PER HT/PER/DIR
                 (UTC) (F)     (DEG/KT/KT) (MB)    (FT/S) (FT/S/D)
FRYING PAN BUOY  1300   79 78  150/ 19/ 25 1016.0R
BUOY 41025       1350   79 76  150/ 17/ 21 1019.2F   6/ 6   2/260/13
CAPE LOOKOUT NC  1400   75     130/  9/ 10 1018.2F
BUOY 41002       1350   76 75  120/ 12/ 16 1019.4R   4/ 7   3/120/ 7
BUOY 41010       1320   79 79  240/  8/  8 1018.3R
ST AUGUSTINE FL  1400   76 78  320/  6/  7 1019.3R

$$




USA.gov is the U.S. government's official web portal to all federal, state and local government web resources and services.